Location: Unspecified
(0.0000°N, 0.0000°E)
Time: 08:04:51
(UTC+00:00)

deb Centaur AC-2 - Pass Details

Date: 07 August 2024
Orbit: 582 x 982 km, 29.9° (Epoch: 09 September)

Event Time Altitude Azimuth Distance (km) Brightness Sun altitude
Exits shadow 05:05:04 20° 244° (WSW) 2,030 ? -14.6°
Maximum altitude 05:09:43 76° 327° (NNW) 925 ? -13.4°
Drops below altitude 10° 05:15:36 10° 53° (NE) 2,430 ? -12.0°
Sets 05:17:59 0° 55° (NE) 3,297 ? -11.5°
